1514602801.19,37366,4.75,72088.0,-16.65,-17.41,-17.35,0,*60
1514602802.43,37367,4.75,72092.0,-16.63,-17.41,-17.35,0,*67
1514602803.66,37368,4.75,72092.0,-16.63,-17.35,-17.35,0,*6B
1514602804.91,37369,4.75,72092.3,-16.65,-17.35,-17.35,0,*6C
1514602806.15,37370,4.75,72090.0,-16.63,-17.41,-17.35,0,*61
1514602807.4,37371,4.75,72086.8,-16.63,-17.35,-17.41,0,*60
1514602808.65,37372,4.75,72084.8,-16.63,-17.41,-17.35,0,*63
1514602809.87,37373,4.75,72094.3,-16.63,-17.35,-17.35,0,*61
1514602811.11,37374,4.75,72088.8,-16.61,-17.35,-17.31,0,*60
1514602812.35,37375,4.75,72088.8,-16.63,-17.35,-17.41,0,*64
1514602813.6,37376,4.75,72094.0,-16.63,-17.41,-17.35,0,*67
1514602814.88,37377,4.75,72094.8,-16.65,-17.41,-17.35,0,*60
1514602816.17,37378,4.75,72096.0,-16.65,-17.41,-17.41,0,*6C
1514602817.39,37379,4.75,72092.5,-16.63,-17.35,-17.35,0,*6B
1514602818.68,37380,4.75,72088.0,-16.65,-17.41,-17.41,0,*6B
1514602819.96,37381,4.75,72086.5,-16.65,-17.41,-17.35,0,*69
1514602821.18,37382,4.75,72086.3,-16.63,-17.35,-17.35,0,*6F
1514602822.43,37383,4.75,72090.8,-16.65,-17.35,-17.35,0,*68
1514602823.65,37384,4.75,72088.5,-16.63,-17.35,-17.35,0,*69
1514602824.92,37385,4.75,72090.0,-16.63,-17.41,-17.41,0,*68
1514602826.14,37386,4.75,72088.0,-16.63,-17.35,-17.35,0,*6B
1514602827.39,37387,4.75,72088.5,-16.65,-17.35,-17.35,0,*6C
1514602828.61,37388,4.75,72088.3,-16.63,-17.35,-17.35,0,*65
1514602829.9,37389,4.75,72090.8,-16.65,-17.41,-17.25,0,*60
1514602831.17,37390,4.75,72080.0,-16.63,-17.41,-17.41,0,*6C
1514602832.46,37391,4.75,72076.8,-16.65,-17.25,-17.41,0,*69
1514602833.73,37392,4.75,72082.8,-16.63,-17.41,-17.41,0,*6E
1514602834.98,37393,4.75,72080.8,-16.63,-17.41,-17.35,0,*6C
1514602836.23,37394,4.75,72086.0,-16.63,-17.41,-17.35,0,*6B
1514602837.45,37395,4.75,72092.3,-16.63,-17.35,-17.35,0,*69
1514602838.7,37396,4.75,72092.0,-16.65,-17.35,-17.35,0,*6C
1514602839.97,37397,4.75,72094.3,-16.65,-17.41,-17.35,0,*6E
1514602841.22,37398,4.75,72094.5,-16.63,-17.41,-17.35,0,*67
1514602842.47,37399,4.75,72094.0,-16.63,-17.41,-17.35,0,*66
1514602843.72,37400,4.75,72094.3,-16.63,-17.41,-17.35,0,*61
1514602845.01,37401,4.75,72092.3,-16.65,-17.25,-17.41,0,*67
1514602846.24,37402,4.75,72096.3,-16.63,-17.35,-17.35,0,*60
1514602847.52,37403,4.75,72094.5,-16.65,-17.41,-17.25,0,*65
1514602848.75,37404,4.75,72096.0,-16.63,-17.35,-17.35,0,*66
1514602850.02,37405,4.75,72092.3,-16.63,-17.41,-17.41,0,*67
1514602851.27,37406,4.75,72088.8,-16.63,-17.41,-17.35,0,*67
1514602852.49,37407,4.75,72094.3,-16.63,-17.35,-17.35,0,*65
1514602853.73,37408,4.75,72094.8,-16.63,-17.35,-17.41,0,*69
1514602855.0,37409,4.75,72096.3,-16.65,-17.35,-17.41,0,*6E
1514602856.25,37410,4.75,72088.5,-16.63,-17.41,-17.35,0,*60
1514602857.52,37411,4.75,72088.3,-16.65,-17.35,-17.41,0,*67
1514602858.74,37412,4.75,72086.8,-16.63,-17.35,-17.35,0,*61
1514602859.96,37413,4.75,72092.0,-16.63,-17.35,-17.35,0,*60
1514602861.21,37414,4.75,72090.5,-16.65,-17.35,-17.35,0,*61
1514602862.46,37415,4.75,72088.8,-16.63,-17.41,-17.35,0,*65
1514602863.71,37416,4.75,72090.8,-16.65,-17.35,-17.35,0,*63
1514602864.95,37417,4.75,72092.0,-16.63,-17.35,-17.41,0,*67
1514602866.19,37418,4.75,72092.8,-16.63,-17.35,-17.41,0,*68
1514602867.42,37419,4.75,72090.3,-16.63,-17.35,-17.35,0,*6A
1514602868.68,37420,4.75,72088.0,-16.65,-17.35,-17.41,0,*65
1514602869.98,37421,4.75,72094.3,-16.65,-17.41,-17.41,0,*67
1514602871.23,37422,4.75,72090.3,-16.63,-17.41,-17.35,0,*61
1514602872.5,37423,4.75,72078.3,-16.65,-17.41,-17.35,0,*66
1514602873.75,37424,4.75,72084.0,-16.63,-17.41,-17.35,0,*67
1514602875.01,37425,4.75,72080.5,-16.65,-17.35,-17.25,0,*62
1514602876.28,37426,4.75,72088.5,-16.63,-17.41,-17.41,0,*66
1514602877.5,37427,4.75,72088.8,-16.63,-17.35,-17.35,0,*67
1514602878.73,37428,4.75,72090.8,-16.63,-17.35,-17.35,0,*68
1514602880.0,37429,4.75,72088.0,-16.65,-17.41,-17.35,0,*6C
1514602881.24,37430,4.75,72082.8,-16.63,-17.35,-17.41,0,*62
1514602882.49,37431,4.75,72086.3,-16.65,-17.35,-17.35,0,*66
1514602883.73,37432,4.75,72086.8,-16.63,-17.35,-17.25,0,*62
1514602884.95,37433,4.75,72082.0,-16.63,-17.35,-17.35,0,*62
1514602886.19,37434,4.75,72082.5,-16.63,-17.35,-17.25,0,*64
1514602887.44,37435,4.75,72080.8,-16.65,-17.35,-17.35,0,*62
1514602888.7,37436,4.75,72074.8,-16.61,-17.31,-17.21,0,*64
1514602889.97,37437,4.75,72082.5,-16.63,-17.41,-17.41,0,*66
1514602891.22,37438,4.75,72084.0,-16.63,-17.25,-17.35,0,*68
1514602892.47,37439,4.75,72086.8,-16.61,-17.31,-17.25,0,*6F
1514602893.7,37440,4.75,72090.0,-16.63,-17.35,-17.35,0,*66
1514602894.94,37441,4.75,72082.0,-16.63,-17.35,-17.25,0,*66
1514602896.18,37442,4.75,72086.8,-16.65,-17.35,-17.35,0,*62
1514602897.45,37443,4.75,72080.3,-16.61,-17.35,-17.21,0,*62
1514602898.69,37444,4.75,72090.5,-16.63,-17.35,-17.25,0,*63
1514602899.93,37445,4.75,72086.5,-16.63,-17.35,-17.25,0,*62
1514602901.17,37446,4.75,72086.5,-16.63,-17.35,-17.25,0,*61
1514602902.42,37447,4.75,72080.3,-16.65,-17.35,-17.35,0,*67
1514602903.64,37448,4.75,72078.0,-16.63,-17.35,-17.35,0,*6E
1514602904.89,37449,4.75,72080.3,-16.63,-17.41,-17.35,0,*6C
1514602906.15,37450,4.75,72084.3,-16.63,-17.25,-17.25,0,*67
1514602907.42,37451,4.75,72084.3,-16.63,-17.25,-17.25,0,*66
1514602908.66,37452,4.75,72082.8,-16.65,-17.35,-17.35,0,*63
1514602909.91,37453,4.75,72084.0,-16.63,-17.41,-17.35,0,*67
1514602911.13,37454,4.75,72084.8,-16.63,-17.35,-17.35,0,*63
1514602912.4,37455,4.75,72084.0,-16.65,-17.35,-17.25,0,*65
1514602913.66,37456,4.75,72088.3,-16.63,-17.25,-17.25,0,*61
1514602914.92,37457,4.75,72090.0,-16.61,-17.31,-17.21,0,*63
1514602916.16,37458,4.75,72086.3,-16.63,-17.35,-17.25,0,*6E
1514602917.42,37459,4.75,72088.0,-16.63,-17.25,-17.25,0,*6E
1514602918.66,37460,4.75,72084.8,-16.63,-17.35,-17.21,0,*61
1514602919.95,37461,4.75,72090.0,-16.65,-17.21,-17.25,0,*67
1514602921.19,37462,4.75,72090.8,-16.63,-17.35,-17.21,0,*63
1514602922.46,37463,4.75,72090.5,-16.63,-17.25,-17.25,0,*67
1514602923.72,37464,4.75,72088.0,-16.63,-17.25,-17.21,0,*64
1514602924.98,37465,4.75,72082.0,-16.61,-17.31,-17.17,0,*67
1514602926.24,37466,4.75,72084.5,-16.63,-17.25,-17.21,0,*66
1514602927.54,37467,4.75,72082.3,-16.61,-17.17,-17.17,0,*61
1514602928.8,37468,4.75,72080.3,-16.61,-17.31,-17.21,0,*6F
1514602930.09,37469,4.75,72080.8,-16.61,-17.21,-17.21,0,*6F
1514602931.38,37470,4.75,72080.0,-16.61,-17.17,-17.17,0,*67
1514602932.62,37471,4.75,72076.5,-16.63,-17.35,-17.25,0,*65
1514602933.91,37472,4.75,72072.3,-16.61,-17.17,-17.21,0,*60
1514602935.18,37473,4.75,72082.3,-16.63,-17.25,-17.25,0,*66
1514602936.44,37474,4.75,72084.3,-16.63,-17.21,-17.25,0,*65
1514602937.73,37475,4.75,72082.3,-16.61,-17.17,-17.21,0,*67
1514602939.0,37476,4.75,72082.5,-16.61,-17.31,-17.21,0,*60
1514602940.26,37477,4.75,72078.8,-16.61,-17.31,-17.21,0,*61
1514602941.55,37478,4.75,72084.3,-16.61,-17.21,-17.17,0,*6A
1514602942.81,37479,4.75,72084.5,-16.63,-17.25,-17.21,0,*68
1514602944.1,37480,4.75,72084.0,-16.61,-17.21,-17.21,0,*68
1514602945.35,37481,4.75,72084.3,-16.63,-17.25,-17.35,0,*6A
1514602946.61,37482,4.75,72090.8,-16.63,-17.25,-17.25,0,*68
1514602947.83,37483,4.75,72088.3,-16.63,-17.35,-17.35,0,*69
1514602949.13,37484,4.75,72086.5,-16.61,-17.17,-17.21,0,*69
1514602950.39,37485,4.75,72082.0,-16.61,-17.31,-17.21,0,*6C
1514602951.66,37486,4.75,72082.0,-16.59,-17.21,-17.21,0,*65
1514602952.95,37487,4.75,72082.8,-16.61,-17.21,-17.21,0,*6F
1514602954.21,37488,4.75,72084.3,-16.61,-17.31,-17.21,0,*61
1514602955.47,37489,4.75,72086.5,-16.61,-17.31,-17.17,0,*65
1514602956.76,37490,4.75,72086.8,-16.61,-17.21,-17.21,0,*69
1514602958.02,37491,4.75,72084.5,-16.61,-17.31,-17.17,0,*6C
1514602959.25,37492,4.75,72084.8,-16.59,-17.31,-17.17,0,*64
1514602960.52,37493,4.75,72086.3,-16.61,-17.31,-17.21,0,*6B
1514602961.78,37494,4.75,72084.5,-16.61,-17.21,-17.31,0,*6C
1514602963.04,37495,4.75,72086.5,-16.61,-17.21,-17.31,0,*6D
1514602964.33,37496,4.75,72082.3,-16.61,-17.17,-17.17,0,*6F
1514602965.59,37497,4.75,72082.0,-16.61,-17.31,-17.21,0,*6F
1514602966.82,37498,4.75,72086.3,-16.61,-17.31,-17.31,0,*61
1514602968.06,37499,4.75,72088.0,-16.61,-17.31,-17.31,0,*60
1514602969.32,37500,4.75,72086.3,-16.61,-17.31,-17.21,0,*60
1514602970.61,37501,4.75,72084.3,-16.61,-17.21,-17.21,0,*60
1514602971.87,37502,4.75,72082.8,-16.61,-17.31,-17.21,0,*62
1514602973.13,37503,4.75,72084.0,-16.61,-17.31,-17.17,0,*66
1514602974.37,37504,4.75,72086.0,-16.61,-17.35,-17.31,0,*61
1514602975.61,37505,4.75,72092.8,-16.59,-17.35,-17.21,0,*6A
1514602976.84,37506,4.75,72086.0,-16.61,-17.31,-17.31,0,*67
1514602978.11,37507,4.75,72078.3,-16.61,-17.31,-17.21,0,*67
1514602979.37,37508,4.75,72076.3,-16.61,-17.31,-17.21,0,*68
1514602980.63,37509,4.75,72084.0,-16.61,-17.31,-17.21,0,*69
1514602981.86,37510,4.75,72080.0,-16.61,-17.31,-17.31,0,*60
1514602983.1,37511,4.75,72080.0,-16.61,-17.35,-17.31,0,*65
1514602984.36,37512,4.75,72082.3,-16.61,-17.31,-17.21,0,*63
1514602985.62,37513,4.75,72090.3,-16.61,-17.31,-17.21,0,*62
1514602986.88,37514,4.75,72092.3,-16.61,-17.31,-17.21,0,*65
1514602988.14,37515,4.75,72090.0,-16.61,-17.31,-17.21,0,*64
1514602989.4,37516,4.75,72088.3,-16.61,-17.31,-17.21,0,*67
1514602990.67,37517,4.75,72088.5,-16.61,-17.35,-17.21,0,*62
1514602991.9,37518,4.75,72088.0,-16.61,-17.31,-17.31,0,*68
1514602993.16,37519,4.75,72090.0,-16.61,-17.31,-17.21,0,*68
1514602994.4,37520,4.75,72088.5,-16.61,-17.31,-17.31,0,*63
1514602995.64,37521,4.75,72084.3,-16.61,-17.31,-17.35,0,*66
1514602996.9,37522,4.75,72084.3,-16.61,-17.35,-17.21,0,*64
1514602998.14,37523,4.75,72088.3,-16.61,-17.35,-17.31,0,*64
1514602999.38,37524,4.75,72080.5,-16.61,-17.31,-17.31,0,*67
1514603000.61,37525,4.75,72090.8,-16.61,-17.31,-17.31,0,*66
1514603001.85,37526,4.75,72090.8,-16.61,-17.35,-17.31,0,*61
1514603003.09,37527,4.75,72088.3,-16.61,-17.35,-17.31,0,*60
1514603004.32,37528,4.75,72090.5,-16.61,-17.35,-17.31,0,*6F
1514603005.57,37529,4.75,72092.5,-16.61,-17.31,-17.35,0,*6E
1514603006.8,37530,4.75,72092.0,-16.61,-17.31,-17.31,0,*62
1514603008.03,37531,4.75,72092.3,-16.61,-17.31,-17.31,0,*63
1514603009.26,37532,4.75,72092.8,-16.61,-17.31,-17.31,0,*60
1514603010.49,37533,4.75,72090.8,-16.61,-17.31,-17.31,0,*61
1514603011.72,37534,4.75,72090.5,-16.61,-17.31,-17.31,0,*66
1514603012.95,37535,4.75,72094.5,-16.61,-17.31,-17.31,0,*67
1514603014.19,37536,4.75,72088.0,-16.61,-17.31,-17.31,0,*64
1514603015.45,37537,4.75,72088.8,-16.61,-17.21,-17.31,0,*64
1514603016.69,37538,4.75,72094.8,-16.63,-17.35,-17.41,0,*6B
1514603017.92,37539,4.75,72090.0,-16.61,-17.31,-17.31,0,*6B
1514603019.16,37540,4.75,72090.0,-16.61,-17.35,-17.31,0,*61
1514603020.39,37541,4.75,72090.8,-16.61,-17.31,-17.31,0,*64
1514603021.69,37542,4.75,72094.0,-16.61,-17.21,-17.21,0,*67
1514603022.93,37543,4.75,72098.0,-16.61,-17.31,-17.35,0,*62
1514603024.19,37544,4.75,72092.5,-16.61,-17.31,-17.21,0,*60
1514603025.42,37545,4.75,72096.3,-16.61,-17.31,-17.31,0,*60
1514603026.71,37546,4.75,72094.8,-16.61,-17.21,-17.21,0,*63
1514603027.97,37547,4.75,72094.5,-16.61,-17.21,-17.31,0,*63
1514603029.24,37548,4.75,72092.0,-16.61,-17.17,-17.31,0,*69
1514603030.5,37549,4.75,72102.8,-16.61,-17.31,-17.21,0,*6D
1514603031.74,37550,4.75,72098.3,-16.61,-17.35,-17.31,0,*60
1514603032.98,37551,4.75,72098.5,-16.61,-17.31,-17.35,0,*61
1514603034.21,37552,4.75,72098.8,-16.61,-17.31,-17.31,0,*66
1514603035.47,37553,4.75,72098.3,-16.61,-17.31,-17.21,0,*66
1514603036.73,37554,4.75,72096.0,-16.61,-17.31,-17.21,0,*61
1514603037.99,37555,4.75,72096.5,-16.61,-17.31,-17.21,0,*60
1514603039.29,37556,4.75,72096.0,-16.61,-17.21,-17.21,0,*62
1514603040.53,37557,4.75,72100.8,-16.59,-17.17,-17.31,0,*6C
1514603041.82,37558,4.75,72094.3,-16.61,-17.21,-17.21,0,*6C
1514603043.11,37559,4.75,72096.0,-16.61,-17.21,-17.21,0,*6D
1514603044.33,37560,4.75,72094.3,-16.63,-17.35,-17.35,0,*65
1514603045.56,37561,4.75,72098.3,-16.61,-17.31,-17.31,0,*66
1514603046.8,37562,4.75,72098.8,-16.61,-17.35,-17.31,0,*61
1514603048.02,37563,4.75,72102.5,-16.59,-17.31,-17.35,0,*6B
1514603049.28,37564,4.75,72102.5,-16.61,-17.31,-17.21,0,*62
1514603050.55,37565,4.75,72096.5,-16.61,-17.35,-17.17,0,*62
1514603051.78,37566,4.75,72096.8,-16.61,-17.31,-17.31,0,*61
1514603053.07,37567,4.75,72092.5,-16.61,-17.21,-17.21,0,*60
1514603054.3,37568,4.75,72094.5,-16.61,-17.31,-17.31,0,*6F
1514603055.53,37569,4.75,72092.0,-16.61,-17.31,-17.31,0,*6E
1514603056.8,37570,4.75,72090.0,-16.61,-17.31,-17.21,0,*67
1514603058.04,37571,4.75,72090.5,-16.61,-17.35,-17.31,0,*63
1514603059.27,37572,4.75,72094.8,-16.61,-17.35,-17.31,0,*60
1514603060.49,37573,4.75,72094.8,-16.59,-17.35,-17.31,0,*6A
1514603061.72,37574,4.75,72094.5,-16.61,-17.31,-17.31,0,*62
1514603062.95,37575,4.75,72092.0,-16.61,-17.31,-17.31,0,*63
1514603064.19,37576,4.75,72096.5,-16.61,-17.31,-17.35,0,*64
1514603065.43,37577,4.75,72098.8,-16.61,-17.31,-17.31,0,*61
1514603066.64,37578,4.75,72098.8,-16.59,-17.31,-17.35,0,*61
1514603067.88,37579,4.75,72094.5,-16.61,-17.31,-17.31,0,*6F
1514603069.12,37580,4.75,72092.0,-16.61,-17.31,-17.35,0,*6D
1514603070.39,37581,4.75,72094.0,-16.61,-17.45,-17.35,0,*6F
1514603071.64,37582,4.75,72092.5,-16.61,-17.35,-17.35,0,*6B
1514603072.89,37583,4.75,72092.5,-16.61,-17.35,-17.35,0,*6A
1514603074.12,37584,4.75,72098.0,-16.61,-17.31,-17.31,0,*6D
1514603075.37,37585,4.75,72098.5,-16.61,-17.35,-17.35,0,*6C
1514603076.6,37586,4.75,72092.0,-16.61,-17.31,-17.31,0,*6F
1514603077.84,37587,4.75,72098.3,-16.61,-17.35,-17.31,0,*6A
1514603079.07,37588,4.75,72094.8,-16.61,-17.31,-17.31,0,*61
1514603080.32,37589,4.75,72092.0,-16.61,-17.35,-17.35,0,*60
1514603081.55,37590,4.75,72094.0,-16.61,-17.31,-17.31,0,*68
1514603082.79,37591,4.75,72088.8,-16.61,-17.35,-17.31,0,*6D
1514603084.03,37592,4.75,72094.5,-16.61,-17.31,-17.35,0,*6E
1514603085.27,37593,4.75,72100.0,-16.61,-17.35,-17.31,0,*6F
1514603086.51,37594,4.75,72094.0,-16.61,-17.31,-17.35,0,*68
1514603087.76,37595,4.75,72096.0,-16.63,-17.41,-17.35,0,*6C
1514603089.01,37596,4.75,72090.0,-16.61,-17.35,-17.35,0,*6E
1514603090.25,37597,4.75,72094.3,-16.61,-17.31,-17.31,0,*6F
1514603091.49,37598,4.75,72088.5,-16.61,-17.31,-17.35,0,*64
1514603092.74,37599,4.75,72090.0,-16.61,-17.35,-17.35,0,*61
1514603093.98,37600,4.75,72092.5,-16.61,-17.31,-17.35,0,*66
1514603095.21,37601,4.75,72096.0,-16.61,-17.31,-17.31,0,*63
1514603096.46,37602,4.75,72092.3,-16.61,-17.35,-17.35,0,*60
1514603097.72,37603,4.75,72094.5,-16.61,-17.21,-17.31,0,*60
1514603098.97,37604,4.75,72096.5,-16.61,-17.35,-17.35,0,*66
1514603100.21,37605,4.75,72092.8,-16.61,-17.35,-17.31,0,*63
1514603101.45,37606,4.75,72090.5,-16.61,-17.35,-17.31,0,*60
1514603102.69,37607,4.75,72098.0,-16.61,-17.35,-17.31,0,*61
1514603103.92,37608,4.75,72094.0,-16.61,-17.31,-17.31,0,*6A
1514603105.18,37609,4.75,72098.8,-16.63,-17.41,-17.25,0,*6B
1514603106.41,37610,4.75,72094.8,-16.63,-17.35,-17.35,0,*61
1514603107.63,37611,4.75,72092.0,-16.63,-17.35,-17.35,0,*60
1514603108.85,37612,4.75,72098.5,-16.63,-17.35,-17.35,0,*63
1514603110.12,37613,4.75,72094.8,-16.61,-17.31,-17.21,0,*61
1514603111.35,37614,4.75,72096.3,-16.61,-17.35,-17.31,0,*63
1514603112.62,37615,4.75,72092.0,-16.61,-17.35,-17.17,0,*66
1514603113.83,37616,4.75,72092.0,-16.59,-17.31,-17.31,0,*6E
1514603115.09,37617,4.75,72092.0,-16.61,-17.31,-17.21,0,*65
1514603116.32,37618,4.75,72088.5,-16.61,-17.31,-17.31,0,*6B
1514603117.58,37619,4.75,72088.3,-16.61,-17.31,-17.21,0,*6B
1514603118.87,37620,4.75,72090.0,-16.61,-17.21,-17.21,0,*60
1514603120.13,37621,4.75,72082.3,-16.61,-17.21,-17.31,0,*60
1514603121.37,37622,4.75,72086.0,-16.61,-17.31,-17.31,0,*62
1514603122.66,37623,4.75,72090.8,-16.61,-17.21,-17.21,0,*63
1514603123.89,37624,4.75,72090.5,-16.61,-17.31,-17.31,0,*64
1514603125.16,37625,4.75,72090.0,-16.61,-17.35,-17.21,0,*60
1514603126.39,37626,4.75,72092.8,-16.61,-17.31,-17.31,0,*66
1514603127.65,37627,4.75,72088.8,-16.61,-17.31,-17.21,0,*66
1514603128.91,37628,4.75,72088.8,-16.61,-17.31,-17.21,0,*69
1514603130.14,37629,4.75,72096.3,-16.61,-17.31,-17.31,0,*69
1514603131.37,37630,4.75,72102.3,-16.61,-17.31,-17.31,0,*61
1514603132.61,37631,4.75,72098.0,-16.61,-17.31,-17.31,0,*60
1514603133.84,37632,4.75,72090.8,-16.61,-17.35,-17.31,0,*67
1514603135.11,37633,4.75,72090.0,-16.61,-17.21,-17.31,0,*63
1514603136.34,37634,4.75,72092.3,-16.61,-17.31,-17.31,0,*65
1514603137.6,37635,4.75,72096.3,-16.61,-17.31,-17.21,0,*65
1514603138.84,37636,4.75,72094.3,-16.61,-17.35,-17.31,0,*63
1514603140.1,37637,4.75,72090.8,-16.61,-17.21,-17.31,0,*67
1514603141.39,37638,4.75,72086.8,-16.61,-17.21,-17.21,0,*69
1514603142.65,37639,4.75,72082.8,-16.61,-17.31,-17.17,0,*6C
1514603143.92,37640,4.75,72088.8,-16.61,-17.35,-17.21,0,*63
1514603145.18,37641,4.75,72088.5,-16.61,-17.31,-17.21,0,*66
1514603146.44,37642,4.75,72082.8,-16.61,-17.31,-17.21,0,*65
1514603147.7,37643,4.75,72084.8,-16.61,-17.31,-17.21,0,*64
1514603148.99,37644,4.75,72086.8,-16.61,-17.21,-17.21,0,*62
1514603150.29,37645,4.75,72090.5,-16.61,-17.17,-17.21,0,*66
1514603151.52,37646,4.75,72092.3,-16.59,-17.31,-17.17,0,*6F
1514603152.76,37647,4.75,72096.8,-16.59,-17.31,-17.21,0,*6B
1514603154.0,37648,4.75,72096.8,-16.59,-17.31,-17.21,0,*64
1514603155.27,37649,4.75,72098.5,-16.61,-17.35,-17.17,0,*6F
1514603156.53,37650,4.75,72090.8,-16.61,-17.31,-17.21,0,*66
1514603157.77,37651,4.75,72094.8,-16.59,-17.35,-17.21,0,*68
1514603159.03,37652,4.75,72094.0,-16.61,-17.31,-17.21,0,*64
1514603160.32,37653,4.75,72094.3,-16.61,-17.21,-17.21,0,*64
1514603161.61,37654,4.75,72088.0,-16.61,-17.21,-17.17,0,*66
1514603162.88,37655,4.75,72092.5,-16.59,-17.21,-17.21,0,*69
1514603164.11,37656,4.75,72090.5,-16.61,-17.31,-17.31,0,*61
1514603165.4,37657,4.75,72090.8,-16.61,-17.21,-17.21,0,*60
1514603166.67,37658,4.75,72094.3,-16.61,-17.21,-17.31,0,*6E
1514603167.93,37659,4.75,72088.8,-16.61,-17.31,-17.17,0,*6A
1514603169.19,37660,4.75,72088.3,-16.61,-17.31,-17.21,0,*65
1514603170.48,37661,4.75,72090.3,-16.61,-17.21,-17.21,0,*65
1514603171.77,37662,4.75,72092.3,-16.61,-17.21,-17.21,0,*66
1514603173.06,37663,4.75,72094.0,-16.61,-17.21,-17.21,0,*67
1514603174.35,37664,4.75,72092.3,-16.61,-17.21,-17.21,0,*60
1514603175.61,37665,4.75,72092.8,-16.61,-17.31,-17.21,0,*60
1514603176.85,37666,4.75,72094.8,-16.59,-17.17,-17.31,0,*6D
1514603178.12,37667,4.75,72094.3,-16.61,-17.31,-17.21,0,*62
1514603179.41,37668,4.75,72094.3,-16.61,-17.21,-17.21,0,*6C
1514603180.65,37669,4.75,72092.8,-16.61,-17.35,-17.31,0,*69
1514603181.91,37670,4.75,72092.3,-16.61,-17.31,-17.21,0,*64
1514603183.17,37671,4.75,72094.0,-16.61,-17.31,-17.21,0,*65
1514603184.4,37672,4.75,72094.0,-16.61,-17.31,-17.31,0,*67
1514603185.66,37673,4.75,72090.0,-16.61,-17.31,-17.21,0,*67
1514603186.9,37674,4.75,72090.3,-16.59,-17.31,-17.21,0,*6B
1514603188.13,37675,4.75,72088.3,-16.61,-17.31,-17.31,0,*60
1514603189.36,37676,4.75,72084.0,-16.61,-17.31,-17.31,0,*63
1514603190.63,37677,4.75,72094.3,-16.61,-17.35,-17.21,0,*67
1514603191.88,37678,4.75,72092.5,-16.61,-17.35,-17.35,0,*6D
1514603193.14,37679,4.75,72086.3,-16.61,-17.31,-17.21,0,*6D
1514603194.37,37680,4.75,72088.3,-16.59,-17.35,-17.35,0,*61
1514603195.6,37681,4.75,72092.3,-16.61,-17.31,-17.31,0,*6B
1514603196.83,37682,4.75,72094.3,-16.61,-17.31,-17.31,0,*68
1514603198.07,37683,4.75,72094.8,-16.61,-17.35,-17.31,0,*6D
1514603199.28,37684,4.75,72090.3,-16.59,-17.31,-17.31,0,*65
1514603200.52,37685,4.75,72086.0,-16.59,-17.35,-17.21,0,*61
1514603201.78,37686,4.75,72088.8,-16.61,-17.31,-17.21,0,*6D
1514603203.02,37687,4.75,72090.0,-16.61,-17.35,-17.31,0,*69
1514603204.26,37688,4.75,72094.3,-16.61,-17.35,-17.31,0,*66
1514603205.49,37689,4.75,72102.0,-16.61,-17.31,-17.31,0,*63
1514603206.75,37690,4.75,72090.5,-16.61,-17.31,-17.21,0,*6A
1514603207.99,37691,4.75,72088.0,-16.61,-17.35,-17.31,0,*6E
1514603209.22,37692,4.75,72094.5,-16.59,-17.35,-17.35,0,*62
1514603210.46,37693,4.75,72094.0,-16.61,-17.35,-17.31,0,*6C
1514603211.7,37694,4.75,72090.0,-16.61,-17.31,-17.35,0,*6B
1514603212.94,37695,4.75,72086.5,-16.61,-17.35,-17.31,0,*6A
1514603214.18,37696,4.75,72094.5,-16.61,-17.35,-17.31,0,*69
1514603215.41,37697,4.75,72094.0,-16.61,-17.31,-17.31,0,*6C
1514603216.65,37698,4.75,72090.8,-16.61,-17.35,-17.31,0,*67
1514603217.88,37699,4.75,72094.3,-16.61,-17.31,-17.31,0,*62
1514603219.09,37700,4.75,72096.3,-16.59,-17.31,-17.31,0,*68
1514603220.32,37701,4.75,72094.5,-16.61,-17.35,-17.31,0,*66
1514603221.56,37702,4.75,72094.5,-16.61,-17.31,-17.31,0,*61
1514603222.76,37703,4.75,72098.0,-16.59,-17.31,-17.31,0,*6B
1514603224.0,37704,4.75,72096.3,-16.61,-17.35,-17.31,0,*63
1514603225.21,37705,4.75,72096.3,-16.59,-17.31,-17.31,0,*6D
1514603226.44,37706,4.75,72096.5,-16.61,-17.31,-17.31,0,*65
1514603227.68,37707,4.75,72096.0,-16.61,-17.35,-17.31,0,*60
1514603228.91,37708,4.75,72098.8,-16.61,-17.31,-17.31,0,*6B
1514603230.13,37709,4.75,72100.5,-16.59,-17.35,-17.31,0,*65
1514603231.35,37710,4.75,72100.0,-16.59,-17.31,-17.35,0,*6D
1514603232.59,37711,4.75,72100.5,-16.61,-17.31,-17.35,0,*67
1514603233.83,37712,4.75,72098.8,-16.61,-17.35,-17.31,0,*64
1514603235.04,37713,4.75,72098.8,-16.59,-17.31,-17.31,0,*6A
1514603236.31,37714,4.75,72094.0,-16.61,-17.35,-17.21,0,*63
1514603237.55,37715,4.75,72098.8,-16.61,-17.35,-17.31,0,*63
1514603238.78,37716,4.75,72100.0,-16.61,-17.35,-17.31,0,*60
1514603240.03,37717,4.75,72100.0,-16.61,-17.35,-17.35,0,*65
1514603241.29,37718,4.75,72102.3,-16.61,-17.31,-17.21,0,*6B
1514603242.52,37719,4.75,72096.8,-16.61,-17.31,-17.31,0,*6B
1514603243.77,37720,4.75,72096.0,-16.61,-17.35,-17.35,0,*61
1514603245.01,37721,4.75,72100.0,-16.61,-17.35,-17.31,0,*64
1514603246.25,37722,4.75,72100.8,-16.61,-17.31,-17.35,0,*67
1514603247.48,37723,4.75,72102.8,-16.59,-17.35,-17.35,0,*69
1514603248.71,37724,4.75,72104.5,-16.61,-17.31,-17.31,0,*65
1514603249.94,37725,4.75,72100.0,-16.61,-17.31,-17.31,0,*64
1514603251.15,37726,4.75,72104.0,-16.59,-17.31,-17.31,0,*6C
1514603252.39,37727,4.75,72100.5,-16.61,-17.35,-17.31,0,*62
1514603253.64,37728,4.75,72100.5,-16.61,-17.35,-17.35,0,*69
1514603254.85,37729,4.75,72096.8,-16.59,-17.31,-17.31,0,*63
1514603256.08,37730,4.75,72098.3,-16.61,-17.31,-17.31,0,*60
1514603257.32,37731,4.75,72100.0,-16.61,-17.31,-17.35,0,*65
1514603258.58,37732,4.75,72102.5,-16.61,-17.21,-17.31,0,*63
1514603259.84,37733,4.75,72098.0,-16.61,-17.31,-17.21,0,*62
1514603261.08,37734,4.75,72092.8,-16.61,-17.31,-17.31,0,*64
1514603262.29,37735,4.75,72094.5,-16.59,-17.35,-17.31,0,*6A
1514603263.53,37736,4.75,72100.3,-16.59,-17.31,-17.21,0,*6C
1514603264.77,37737,4.75,72098.0,-16.63,-17.35,-17.21,0,*60
1514603266.0,37738,4.75,72098.0,-16.61,-17.31,-17.31,0,*68
1514603267.23,37739,4.75,72092.8,-16.61,-17.31,-17.31,0,*69
1514603268.47,37740,4.75,72098.5,-16.59,-17.31,-17.21,0,*6D
1514603269.73,37741,4.75,72102.0,-16.61,-17.31,-17.21,0,*67
1514603270.99,37742,4.75,72092.5,-16.61,-17.31,-17.21,0,*64
1514603272.23,37743,4.75,72096.0,-16.61,-17.31,-17.31,0,*64
1514603273.46,37744,4.75,72096.8,-16.61,-17.31,-17.31,0,*63
1514603274.72,37745,4.75,72100.0,-16.61,-17.31,-17.21,0,*63
1514603275.99,37746,4.75,72096.5,-16.59,-17.21,-17.21,0,*6A
1514603277.22,37747,4.75,72094.3,-16.61,-17.31,-17.31,0,*60
1514603278.48,37748,4.75,72094.8,-16.61,-17.31,-17.21,0,*6E
1514603279.74,37749,4.75,72094.0,-16.61,-17.21,-17.31,0,*6F
1514603280.98,37750,4.75,72098.3,-16.61,-17.35,-17.31,0,*62
1514603282.25,37751,4.75,72098.3,-16.61,-17.35,-17.21,0,*62
1514603283.49,37752,4.75,72098.8,-16.59,-17.31,-17.21,0,*6E
1514603284.75,37753,4.75,72098.8,-16.61,-17.31,-17.21,0,*64
1514603285.99,37754,4.75,72092.0,-16.59,-17.35,-17.21,0,*6C
1514603287.23,37755,4.75,72088.0,-16.61,-17.35,-17.31,0,*67
1514603288.47,37756,4.75,72090.0,-16.61,-17.35,-17.31,0,*64
1514603289.69,37757,4.75,72096.0,-16.59,-17.31,-17.35,0,*6E
1514603290.9,37758,4.75,72098.8,-16.59,-17.31,-17.31,0,*65
1514603292.16,37759,4.75,72086.5,-16.61,-17.31,-17.21,0,*6E
1514603293.42,37760,4.75,72088.3,-16.61,-17.21,-17.31,0,*64
1514603294.66,37761,4.75,72092.5,-16.59,-17.21,-17.31,0,*6E
1514603295.92,37762,4.75,72094.0,-16.61,-17.31,-17.21,0,*66
1514603297.18,37763,4.75,72094.5,-16.61,-17.31,-17.21,0,*67
1514603298.39,37764,4.75,72092.0,-16.59,-17.31,-17.31,0,*6A
1514603299.62,37765,4.75,72088.8,-16.61,-17.31,-17.31,0,*60